| time (UTC) | temp F | wind direction | speed MPH | gust MPH | rain 1hr in | rain 24hr in | rain mn in | humidity % | barometer mb |
| 20260903074531 | 84 | 184 | 1.0 | 5.0 | 0.00 | 0.00 | 0.00 | 66 | 1012.0 |
| 20260903073029 | 84 | 207 | 2.0 | 4.0 | 0.00 | 0.00 | 0.00 | 65 | 1012.0 |
| 20260903071530 | 85 | 156 | 2.0 | 7.0 | 0.00 | 0.00 | 0.00 | 64 | 1012.2 |
| 20260903070025 | 85 | 196 | 2.0 | 6.0 | 0.00 | 0.00 | 0.00 | 63 | 1012.1 |
| 20260903064523 | 86 | 199 | 1.0 | 8.0 | 0.00 | 0.00 | 0.00 | 62 | 1012.1 |
| 20260903063021 | 86 | 175 | 3.0 | 7.0 | 0.00 | 0.00 | 0.00 | 61 | 1012.0 |
| 20260903061530 | 87 | 155 | 3.0 | 9.0 | 0.00 | 0.00 | 0.00 | 60 | 1011.9 |
| 20260903060015 | 87 | 241 | 3.0 | 10.0 | 0.00 | 0.00 | 0.00 | 58 | 1011.8 |
| 20260903054518 | 88 | 170 | 3.0 | 7.0 | 0.00 | 0.00 | 0.00 | 57 | 1011.9 |
| 20260903053019 | 88 | 185 | 2.0 | 7.0 | 0.00 | 0.00 | 0.00 | 56 | 1011.9 |
| 20260903051509 | 89 | 218 | 3.0 | 7.0 | 0.00 | 0.00 | 0.00 | 55 | 1011.8 |
| 20260903050005 | 89 | 205 | 3.0 | 8.0 | 0.00 | 0.00 | 0.00 | 54 | 1011.7 |
| 20260903044504 | 89 | 264 | 3.0 | 9.0 | 0.00 | 0.00 | 0.00 | 54 | 1011.5 |
| 20260903043004 | 89 | 231 | 2.0 | 7.0 | 0.00 | 0.00 | 0.00 | 54 | 1011.5 |
| 20260903041503 | 88 | 185 | 2.0 | 8.0 | 0.00 | 0.00 | 0.00 | 55 | 1011.5 |
| 20260903040002 | 88 | 172 | 3.0 | 6.0 | 0.00 | 0.00 | 0.00 | 55 | 1011.4 |
| 20260903034502 | 88 | 180 | 3.0 | 7.0 | 0.00 | 0.00 | 0.00 | 56 | 1011.4 |
| 20260903033003 | 87 | 171 | 1.0 | 3.0 | 0.00 | 0.00 | 0.00 | 57 | 1011.4 |
| 20260903031610 | 87 | 128 | 0.0 | 0.0 | 0.00 | 0.00 | 0.00 | 56 | 1011.3 |
| 20260903030002 | 88 | 134 | 0.0 | 2.0 | 0.00 | 0.00 | 0.00 | 55 | 1011.3 |
| 20260903024559 | 88 | 140 | 0.0 | 2.0 | 0.00 | 0.00 | 0.00 | 55 | 1011.2 |
| 20260903023059 | 89 | 129 | 0.0 | 2.0 | 0.00 | 0.00 | 0.00 | 54 | 1011.1 |
| 20260903021559 | 89 | 157 | 0.0 | 2.0 | 0.00 | 0.00 | 0.00 | 53 | 1011.0 |
| 20260903020058 | 90 | 157 | 0.0 | 1.0 | 0.00 | 0.00 | 0.00 | 52 | 1010.8 |
| 20260903014614 | 91 | 157 | 0.0 | 1.0 | 0.00 | 0.00 | 0.00 | 51 | 1010.7 |
| 20260903013103 | 92 | 157 | 0.0 | 1.0 | 0.00 | 0.00 | 0.00 | 49 | 1010.5 |
| 20260903011618 | 94 | 157 | 0.0 | 2.0 | 0.00 | 0.00 | 0.00 | 47 | 1010.3 |
| 20260903010109 | 95 | 136 | 0.0 | 3.0 | 0.00 | 0.00 | 0.00 | 46 | 1010.2 |
| 20260903004601 | 96 | 180 | 0.0 | 3.0 | 0.00 | 0.00 | 0.00 | 44 | 1010.3 |
| 20260903003108 | 97 | 157 | 2.0 | 7.0 | 0.00 | 0.00 | 0.00 | 43 | 1010.3 |
| 20260903001601 | 98 | 161 | 1.0 | 3.0 | 0.00 | 0.00 | 0.00 | 41 | 1010.3 |
| 20260903000054 | 99 | 188 | 2.0 | 6.0 | 0.00 | 0.00 | 0.00 | 40 | 1010.3 |
| 20260902234600 | 99 | 187 | 4.0 | 7.0 | 0.00 | 0.00 | 0.00 | 39 | 1010.3 |
| 20260902233053 | 100 | 178 | 5.0 | 10.0 | 0.00 | 0.00 | 0.00 | 39 | 1010.3 |
| 20260902231552 | 100 | 169 | 4.0 | 9.0 | 0.00 | 0.00 | 0.00 | 39 | 1010.3 |
| 20260902230058 | 101 | 173 | 4.0 | 10.0 | 0.00 | 0.00 | 0.00 | 39 | 1010.4 |
| 20260902224555 | 101 | 173 | 5.0 | 9.0 | 0.00 | 0.00 | 0.00 | 39 | 1010.5 |
| 20260902223049 | 102 | 81 | 2.0 | 12.0 | 0.00 | 0.00 | 0.00 | 39 | 1010.6 |
| 20260902221548 | 101 | 192 | 5.0 | 11.0 | 0.00 | 0.00 | 0.00 | 39 | 1010.6 |
| 20260902220049 | 102 | 198 | 4.0 | 10.0 | 0.00 | 0.00 | 0.00 | 38 | 1010.8 |
| 20260902214549 | 102 | 164 | 4.0 | 9.0 | 0.00 | 0.00 | 0.00 | 39 | 1010.8 |
| 20260902213045 | 103 | 180 | 4.0 | 9.0 | 0.00 | 0.00 | 0.00 | 38 | 1010.8 |
| 20260902211545 | 102 | 207 | 2.0 | 13.0 | 0.00 | 0.00 | 0.00 | 39 | 1011.3 |
| 20260902210042 | 102 | 223 | 3.0 | 12.0 | 0.00 | 0.00 | 0.00 | 38 | 1011.4 |
| 20260902204540 | 103 | 187 | 4.0 | 10.0 | 0.00 | 0.00 | 0.00 | 36 | 1011.7 |
| 20260902203037 | 102 | 246 | 7.0 | 12.0 | 0.00 | 0.00 | 0.00 | 37 | 1011.9 |
| 20260902201542 | 102 | 300 | 3.0 | 9.0 | 0.00 | 0.00 | 0.00 | 39 | 1012.0 |
| 20260902200032 | 101 | 158 | 3.0 | 10.0 | 0.00 | 0.00 | 0.00 | 41 | 1012.2 |
| 20260902194543 | 101 | 177 | 7.0 | 11.0 | 0.00 | 0.00 | 0.00 | 38 | 1012.6 |
| 20260902193027 | 100 | 165 | 5.0 | 10.0 | 0.00 | 0.00 | 0.00 | 41 | 1012.9 |
| 20260902191525 | 100 | 177 | 4.0 | 10.0 | 0.00 | 0.00 | 0.00 | 42 | 1013.2 |
| 20260902190023 | 100 | 169 | 4.0 | 9.0 | 0.00 | 0.00 | 0.00 | 44 | 1013.2 |
| 20260902184527 | 100 | 140 | 5.0 | 10.0 | 0.00 | 0.00 | 0.00 | 44 | 1013.4 |
| 20260902183018 | 99 | 219 | 4.0 | 12.0 | 0.00 | 0.00 | 0.00 | 44 | 1013.7 |
| 20260902181515 | 99 | 174 | 4.0 | 13.0 | 0.00 | 0.00 | 0.00 | 45 | 1013.9 |
| 20260902180011 | 98 | 217 | 4.0 | 13.0 | 0.00 | 0.00 | 0.00 | 45 | 1014.1 |
| 20260902174512 | 98 | 130 | 4.0 | 9.0 | 0.00 | 0.00 | 0.00 | 46 | 1014.6 |
| 20260902173008 | 98 | 155 | 4.0 | 9.0 | 0.00 | 0.00 | 0.00 | 46 | 1014.7 |
| 20260902171503 | 97 | 213 | 5.0 | 10.0 | 0.00 | 0.00 | 0.00 | 48 | 1014.9 |
| 20260902170059 | 96 | 188 | 6.0 | 11.0 | 0.00 | 0.00 | 0.00 | 48 | 1015.0 |
| 20260902164557 | 96 | 220 | 4.0 | 10.0 | 0.00 | 0.00 | 0.00 | 50 | 1015.2 |
| 20260902163052 | 95 | 196 | 4.0 | 11.0 | 0.00 | 0.00 | 0.00 | 53 | 1015.2 |
| 20260902161556 | 94 | 167 | 4.0 | 11.0 | 0.00 | 0.00 | 0.00 | 55 | 1015.3 |
| 20260902160058 | 93 | 193 | 6.0 | 14.0 | 0.00 | 0.00 | 0.00 | 55 | 1015.4 |
| 20260902154543 | 92 | 177 | 5.0 | 10.0 | 0.00 | 0.00 | 0.00 | 56 | 1015.4 |
| 20260902153044 | 92 | 220 | 3.0 | 11.0 | 0.00 | 0.00 | 0.00 | 57 | 1015.2 |
| 20260902151545 | 90 | 205 | 5.0 | 11.0 | 0.00 | 0.00 | 0.00 | 58 | 1015.3 |
| 20260902150035 | 89 | 209 | 5.0 | 10.0 | 0.00 | 0.00 | 0.00 | 60 | 1015.4 |
| 20260902144529 | 88 | 163 | 5.0 | 12.0 | 0.00 | 0.00 | 0.00 | 61 | 1015.4 |
| 20260902143027 | 87 | 199 | 5.0 | 10.0 | 0.00 | 0.00 | 0.00 | 62 | 1015.5 |
| 20260902141532 | 87 | 144 | 4.0 | 12.0 | 0.00 | 0.00 | 0.00 | 64 | 1015.4 |
| 20260902140024 | 86 | 167 | 4.0 | 10.0 | 0.00 | 0.00 | 0.00 | 65 | 1015.4 |
| 20260902134534 | 84 | 166 | 3.0 | 9.0 | 0.00 | 0.00 | 0.00 | 68 | 1015.4 |
| 20260902133022 | 82 | 230 | 3.0 | 6.0 | 0.00 | 0.00 | 0.00 | 70 | 1015.5 |
| 20260902131521 | 80 | 186 | 2.0 | 8.0 | 0.00 | 0.00 | 0.00 | 73 | 1015.4 |
| 20260902130019 | 79 | 175 | 2.0 | 5.0 | 0.00 | 0.00 | 0.00 | 74 | 1015.3 |
| 20260902124519 | 79 | 158 | 3.0 | 5.0 | 0.00 | 0.00 | 0.00 | 75 | 1015.3 |
| 20260902123022 | 78 | 158 | 2.0 | 5.0 | 0.00 | 0.00 | 0.00 | 74 | 1015.2 |
| 20260902121514 | 78 | 165 | 1.0 | 4.0 | 0.00 | 0.00 | 0.00 | 74 | 1015.1 |
| 20260902120011 | 78 | 159 | 1.0 | 7.0 | 0.00 | 0.00 | 0.00 | 74 | 1014.8 |
| 20260902114511 | 78 | 209 | 2.0 | 5.0 | 0.00 | 0.00 | 0.00 | 74 | 1014.6 |
| 20260902113008 | 78 | 188 | 1.0 | 3.0 | 0.00 | 0.00 | 0.00 | 75 | 1014.4 |
| 20260902111506 | 78 | 159 | 0.0 | 1.0 | 0.00 | 0.00 | 0.00 | 74 | 1014.3 |
| 20260902110010 | 78 | 195 | 1.0 | 2.0 | 0.00 | 0.00 | 0.00 | 73 | 1014.3 |
| 20260902104508 | 79 | 198 | 0.0 | 2.0 | 0.00 | 0.00 | 0.00 | 72 | 1014.4 |
| 20260902103101 | 79 | 128 | 0.0 | 1.0 | 0.00 | 0.00 | 0.00 | 71 | 1014.3 |
| 20260902101601 | 80 | 151 | 1.0 | 2.0 | 0.00 | 0.00 | 0.00 | 71 | 1014.0 |
| 20260902100123 | 80 | 249 | 0.0 | 2.0 | 0.00 | 0.00 | 0.00 | 70 | 1013.9 |
| 20260902094553 | 80 | 175 | 0.0 | 2.0 | 0.00 | 0.00 | 0.00 | 69 | 1013.9 |
| 20260902093105 | 81 | 180 | 1.0 | 7.0 | 0.00 | 0.00 | 0.00 | 69 | 1013.9 |
| 20260902091552 | 81 | 178 | 2.0 | 5.0 | 0.00 | 0.00 | 0.00 | 68 | 1013.7 |
| 20260902090055 | 81 | 167 | 1.0 | 3.0 | 0.00 | 0.00 | 0.00 | 67 | 1013.5 |
| 20260902084554 | 81 | 146 | 1.0 | 5.0 | 0.00 | 0.00 | 0.00 | 67 | 1013.6 |
| 20260902083102 | 81 | 170 | 1.0 | 4.0 | 0.00 | 0.00 | 0.00 | 66 | 1013.8 |
| 20260902081608 | 82 | 192 | 1.0 | 3.0 | 0.00 | 0.00 | 0.00 | 65 | 1013.8 |
| 20260902080057 | 82 | 149 | 1.0 | 3.0 | 0.00 | 0.00 | 0.00 | 65 | 1013.6 |